This is the latest recevied weather packets stored in our database for station/object KB9PMA-1. If no packets are shown the sender has not sent any weather packets the latest 10 day(s).
| Time | Temp. | Humidity | Pressure | Rain* | Wind** | Luminosity | Snow |
|---|---|---|---|---|---|---|---|
| 1777721885 | 1.67° C | 87% | 1019.7 hPa | 0 mm | - | - | - |
| 1777721585 | 1.11° C | 87% | 1019.8 hPa | 0 mm | - | - | - |
| 1777721285 | 1.11° C | 88% | 1019.7 hPa | 0 mm | - | - | - |
| 1777720985 | 1.11° C | 88% | 1019.8 hPa | 0 mm | - | - | - |
| 1777720685 | 0.56° C | 89% | 1019.9 hPa | 0 mm | - | - | - |
| 1777720385 | 0.56° C | 90% | 1019.8 hPa | 0 mm | - | - | - |
| 1777720085 | 0.56° C | 91% | 1019.8 hPa | 0 mm | - | - | - |
| 1777719785 | 0.56° C | 90% | 1019.8 hPa | 0 mm | - | - | - |
| 1777719485 | 0.56° C | 89% | 1019.8 hPa | 0 mm | - | - | - |
| 1777719185 | 0.56° C | 89% | 1019.8 hPa | 0 mm | - | - | - |
| 1777718885 | 0.56° C | 90% | 1019.7 hPa | 0 mm | - | - | - |
| 1777718585 | 0.56° C | 91% | 1019.7 hPa | 0 mm | - | - | - |
| 1777718285 | 0.56° C | 91% | 1019.7 hPa | 0 mm | - | - | - |
| 1777717985 | 0.56° C | 91% | 1019.7 hPa | 0 mm | - | - | - |
| 1777717685 | 0.56° C | 91% | 1019.5 hPa | 0 mm | - | - | - |
| 1777717385 | 0.56° C | 92% | 1019.4 hPa | 0 mm | - | - | - |
| 1777717085 | 1.11° C | 91% | 1019.4 hPa | 0 mm | - | - | - |
| 1777716785 | 1.11° C | 90% | 1019.4 hPa | 0 mm | - | - | - |
| 1777716485 | 1.11° C | 89% | 1019.3 hPa | 0 mm | - | - | - |
| 1777716185 | 1.11° C | 88% | 1019.3 hPa | 0 mm | - | - | - |
| 1777715885 | 1.67° C | 87% | 1019.2 hPa | 0 mm | - | - | - |
| 1777715585 | 1.67° C | 86% | 1019.3 hPa | 0 mm | - | - | - |
| 1777715285 | 1.67° C | 84% | 1019.3 hPa | 0 mm | - | - | - |
| 1777714685 | 1.67° C | 80% | 1019.3 hPa | 0 mm | - | - | - |
| 1777714385 | 2.22° C | 80% | 1019.2 hPa | 0 mm | - | - | - |
* Rain latest hour (hover to see other rain measurements)
** Current wind speed in m/s (hover to see current wind gust speed)